GFSFLT1_500_rhum_297.txt.gz
RH
4 3 2 3 3 2 3 6 6 6 3 4 6 7 9 16 18 16 14 9 6 4 3 11 19 28 39 45 45 48 45 31
4 3 3 4 3 2 4 6 6 3 3 4 6 6 8 16 20 18 13 8 6 2 8 16 26 35 42 36 35 37 39 44
4 4 4 5 2 3 6 5 4 2 3 5 5 5 8 16 21 18 12 7 5 3 12 22 31 39 39 33 29 32 34 37
4 4 4 4 2 3 5 5 3 3 4 6 6 10 11 17 21 18 11 7 3 6 17 26 34 42 39 32 28 30 33 34
4 4 4 4 2 3 5 4 3 3 4 4 5 6 8 14 22 18 10 7 2 10 20 27 35 40 37 29 28 28 35 34
4 4 5 5 2 4 5 4 4 3 3 4 6 8 9 16 24 17 10 8 2 13 19 25 35 35 41 30 27 29 33 38
5 5 5 4 2 3 5 4 4 3 4 5 7 9 9 17 25 17 11 7 2 14 16 23 35 35 45 30 26 26 47 51
5 5 6 7 3 3 5 4 4 4 3 7 10 9 10 18 26 17 11 8 2 12 15 21 36 39 49 25 29 29 47 65
5 5 7 6 3 3 5 5 4 4 3 10 10 10 11 19 28 18 12 8 2 10 15 18 35 40 57 28 40 44 60 71
5 5 7 7 4 3 5 5 5 4 5 11 11 10 13 22 30 20 13 9 3 9 15 15 33 40 53 43 34 53 64 76
5 6 7 8 5 3 5 5 4 4 8 12 11 12 14 28 32 21 14 10 3 8 15 14 26 36 49 55 64 40 71 66
5 6 7 8 7 4 5 5 5 5 10 13 10 14 15 35 34 23 15 11 5 4 13 14 15 32 40 58 78 31 60 61
5 6 8 10 8 5 5 5 5 7 12 11 11 16 18 39 35 24 16 12 8 3 12 14 14 17 28 36 46 57 45 54
5 6 10 11 8 5 5 6 6 10 12 9 13 18 22 41 36 26 19 14 10 4 10 14 14 12 17 23 29 61 42 52
5 7 12 12 8 6 6 7 8 13 12 10 16 20 28 42 36 28 21 16 12 7 3 13 14 11 11 17 20 47 44 50
6 9 13 12 8 6 6 9 12 15 11 12 17 21 38 42 36 30 25 19 14 10 4 7 14 14 12 10 21 26 43 48
7 11 13 12 9 7 8 11 14 15 11 14 19 22 45 43 36 33 28 23 17 13 9 3 11 12 11 10 10 22 28 41
8 12 13 12 9 9 10 12 15 13 12 16 21 30 46 42 37 35 31 28 22 17 14 8 3 11 10 11 11 10 22 28
9 12 13 12 10 10 11 13 14 12 12 17 23 40 44 41 39 37 34 32 28 22 18 14 7 3 10 9 10 12 11 22

GFSFLT1_500_rhum_300.txt.gz
RH
4 4 4 3 3 3 2 3 4 5 3 2 2 2 2 2 3 5 14 19 14 7 4 3 7 15 31 41 42 34 31 29
4 4 4 3 4 3 2 3 5 4 3 3 2 2 2 3 4 7 18 19 11 6 4 4 12 27 39 44 42 35 33 35
5 4 4 4 5 3 2 3 5 4 3 3 2 2 2 4 6 12 22 17 10 6 3 7 15 34 40 44 33 31 37 40
6 5 4 5 5 3 2 3 5 4 4 3 2 3 5 8 11 20 23 15 9 5 4 10 24 38 46 38 27 34 36 44
5 5 4 5 5 3 3 3 5 4 3 3 2 3 4 7 10 25 21 13 8 4 6 10 33 40 54 26 40 36 54 44
5 5 4 5 6 5 3 3 5 4 4 3 3 4 6 10 21 27 20 13 8 4 7 11 38 44 57 36 37 48 56 51
5 5 5 6 7 5 3 3 4 4 4 3 4 6 9 13 31 26 19 13 8 3 8 12 41 49 51 36 80 65 64 68
6 5 5 6 8 7 4 3 4 4 3 4 6 7 12 18 32 25 18 13 8 3 7 12 41 47 52 56 75 84 71 82
7 6 5 6 9 10 4 3 3 3 4 6 7 10 15 32 30 25 18 14 8 3 7 11 38 47 57 76 60 70 72 73
7 6 6 7 10 10 5 3 3 4 5 8 8 14 19 37 30 24 19 15 9 4 8 10 29 40 54 79 32 64 34 65
8 6 6 8 11 11 6 3 3 4 7 9 12 18 32 36 30 25 21 16 11 4 9 10 15 29 37 56 38 55 36 40
8 7 7 9 12 11 5 4 4 6 11 9 15 20 40 34 31 26 24 18 13 6 8 10 11 23 25 53 49 49 37 27
8 7 7 10 12 10 7 5 6 9 11 11 18 32 40 33 31 29 26 21 15 9 6 10 10 13 19 45 43 49 34 26
8 7 7 10 12 10 8 7 8 12 10 15 20 42 37 33 32 31 28 25 19 14 5 9 9 10 17 32 44 44 33 30
7 6 8 12 13 11 9 8 10 12 13 18 30 40 35 34 33 33 30 28 22 17 7 8 9 9 12 23 44 48 35 33
6 7 10 14 14 12 10 10 12 13 15 21 40 35 31 29 30 31 30 30 25 20 16 5 10 12 14 21 32 47 46 36
6 8 11 14 15 13 10 12 12 14 19 28 40 30 26 26 24 29 31 31 29 24 21 10 7 10 13 13 23 44 45 43
6 9 13 14 14 11 12 12 13 18 21 39 34 27 26 23 23 26 31 33 33 30 26 20 5 9 11 15 19 25 47 46
7 11 14 14 13 14 12 12 16 20 25 41 32 28 26 22 24 31 31 33 37 37 32 25 16 4 9 12 16 19 23 45

GFSFLT1_500_rhum_303.txt.gz
RH
5 4 5 6 4 4 5 4 3 3 4 5 4 3 3 2 2 2 2 9 20 16 10 8 5 4 5 9 23 37 31 39
4 4 7 5 4 5 6 7 4 3 4 5 4 3 3 2 2 2 6 21 20 13 8 7 4 5 12 28 39 44 52 51
4 7 6 5 4 6 7 7 3 3 4 5 4 3 2 2 2 4 22 23 16 12 8 6 4 12 25 44 50 61 58 66
6 7 6 5 5 6 8 7 3 3 4 4 4 3 3 4 6 21 26 20 16 10 8 5 5 22 46 44 53 74 67 69
6 7 6 5 6 7 8 6 3 3 3 4 3 3 4 4 14 27 24 20 16 10 8 5 10 29 59 68 63 84 85 85
7 6 6 5 6 7 8 6 3 3 3 3 3 4 5 11 28 26 25 22 16 11 7 6 18 43 55 75 46 70 93 93
7 7 6 6 6 7 8 7 4 4 3 3 5 6 8 27 29 28 26 22 16 12 7 6 18 43 59 72 32 85 58 90
8 7 6 6 6 8 9 9 7 5 3 5 7 6 20 29 27 28 27 23 16 12 6 6 15 37 43 62 27 66 39 76
8 8 6 6 6 7 11 11 8 5 4 8 6 14 31 27 28 30 27 23 16 12 6 7 17 37 27 51 31 38 31 66
9 8 6 6 6 10 12 12 9 7 8 8 10 29 28 29 32 30 26 23 17 13 6 7 12 24 43 43 29 26 40 61
9 8 6 6 8 13 14 13 10 10 10 8 18 32 28 28 29 30 26 24 20 14 6 8 11 22 48 30 31 25 46 48
9 8 6 6 10 14 14 12 12 11 9 14 32 28 22 22 25 29 26 27 23 15 6 8 10 27 40 38 28 27 47 80
8 7 6 8 13 15 15 13 13 11 10 20 32 23 20 20 24 27 27 30 27 18 6 9 10 21 26 36 30 29 48 68
8 7 7 11 14 16 15 14 12 11 17 35 28 22 18 22 27 28 31 34 32 22 6 10 13 15 24 39 40 37 47 42
8 6 8 12 15 16 15 14 12 14 22 34 27 22 19 26 29 31 30 36 36 25 7 10 16 18 21 42 42 46 47 97
7 7 10 13 16 16 15 14 13 18 37 31 26 21 23 28 29 25 22 34 39 27 12 8 15 31 22 41 43 47 58 93
6 8 13 16 16 16 14 13 19 28 33 27 26 26 25 29 26 14 20 37 38 28 16 6 12 26 23 33 45 45 77 100
7 11 14 16 14 13 13 20 22 35 27 26 28 27 26 25 13 16 21 35 34 29 19 6 10 21 28 23 45 41 99 98
9 12 13 13 13 15 23 23 35 26 24 25 29 29 28 16 11 16 20 31 30 29 22 14 6 14 27 20 34 44 96 100

GFSFLT1_500_rhum_306.txt.gz
RH
6 5 4 4 6 5 4 4 5 6 5 3 3 4 4 4 3 3 4 13 17 16 17 17 15 12 7 5 6 17 32 44
5 4 4 5 6 5 4 5 6 7 4 3 3 3 4 4 4 4 17 19 18 19 18 15 13 8 6 6 17 58 58 51
4 5 5 6 6 5 5 6 7 7 5 4 3 3 4 4 4 20 21 18 19 18 17 15 10 6 6 20 47 65 62 63
5 5 6 6 6 5 5 6 8 8 6 5 3 4 5 6 24 25 21 22 20 18 18 15 9 6 12 43 61 68 50 74
5 6 7 7 6 4 5 7 9 9 8 6 5 6 7 21 27 22 22 19 19 19 18 15 7 7 24 41 51 54 61 50
6 7 8 6 5 5 6 8 10 11 9 8 7 7 16 30 25 22 16 20 19 20 20 12 6 13 38 39 35 51 52 40
6 7 7 6 5 5 6 10 12 11 10 9 9 12 31 28 21 13 18 19 22 25 20 8 6 17 32 47 57 41 28 65
6 7 7 6 5 5 7 12 13 12 11 13 13 28 31 22 11 15 20 21 27 28 19 6 7 25 36 51 56 26 36 66
6 7 6 6 5 6 11 14 14 13 16 13 18 35 26 14 15 18 16 19 27 29 15 6 7 29 49 54 30 27 58 50
6 8 6 6 6 10 14 15 15 15 16 16 35 32 23 16 19 12 12 20 34 26 10 8 8 34 44 52 28 39 58 83
6 7 6 6 8 12 16 16 15 16 15 25 36 28 18 20 15 10 13 28 33 20 7 10 10 32 52 44 31 46 74 100
7 8 6 7 10 15 17 16 15 14 21 40 32 24 22 23 10 13 26 35 25 17 7 11 12 31 47 39 42 48 94 100
8 8 6 8 13 16 16 15 15 18 32 37 30 24 23 11 13 18 31 29 22 14 8 14 19 28 42 40 45 74 99 92
9 6 7 12 15 15 14 15 16 25 41 32 28 24 18 11 14 24 30 26 20 12 9 16 20 32 39 49 46 98 70 67
8 6 10 15 15 14 14 15 20 40 34 28 24 25 12 12 16 26 26 22 20 10 9 18 22 28 40 58 67 100 35 63
6 8 15 14 14 13 15 20 35 34 29 25 24 24 11 13 17 22 22 22 20 10 9 21 24 28 49 69 93 100 79 47
6 13 14 11 12 17 23 29 33 30 26 20 25 24 12 13 16 19 21 23 20 12 8 22 24 26 58 81 96 100 100 37
11 11 10 13 20 28 27 34 25 26 18 24 24 21 12 13 16 17 21 22 22 16 8 23 26 24 58 100 94 77 100 86
11 9 18 30 31 33 34 21 20 16 24 25 26 17 12 13 16 20 22 23 23 20 8 20 23 24 50 85 98 99 100 98

GFSFLT1_500_rhum_312.txt.gz
RH
47 55 45 14 6 5 5 8 8 7 6 6 7 8 8 7 6 6 12 22 19 11 10 10 7 6 6 6 6 6 6 12
54 41 18 7 5 6 9 9 8 7 6 7 8 9 9 8 8 25 25 15 11 13 8 7 6 6 8 9 13 18 16 11
33 20 9 5 5 8 10 9 8 7 7 9 11 11 10 10 30 24 14 14 14 8 7 7 8 16 18 15 13 9 8 10
25 12 6 6 8 11 10 10 8 7 10 12 12 11 12 32 23 15 17 12 8 7 10 16 20 16 14 9 7 8 15 35
12 7 6 8 11 11 10 8 7 10 13 13 13 14 35 27 19 18 9 8 8 15 18 17 14 12 7 9 11 28 40 43
8 6 9 10 12 11 9 7 10 14 14 14 14 35 30 23 20 9 9 12 16 15 15 15 10 8 13 18 32 47 48 41
11 21 10 12 12 10 7 9 13 14 14 15 34 34 29 22 10 11 14 16 15 16 16 9 10 19 32 40 40 42 45 75
17 10 11 12 11 8 9 12 15 14 15 32 37 33 24 10 11 13 15 16 16 16 9 12 19 36 47 44 65 93 100 100
10 10 11 12 9 8 12 15 14 15 30 39 38 30 12 12 13 16 17 18 18 10 14 20 36 49 53 87 72 98 100 100
10 9 12 10 8 12 15 13 16 28 40 40 36 17 14 15 17 18 19 20 12 16 20 33 70 85 69 72 88 100 100 99
8 11 11 8 12 15 12 16 28 41 42 40 26 14 15 17 19 20 21 16 15 21 32 72 94 85 89 95 100 99 100 90
9 12 7 12 14 12 19 28 40 43 38 32 15 15 17 18 21 21 21 12 19 27 73 97 100 100 100 100 100 100 100 100
12 7 12 12 14 24 29 39 42 35 32 17 16 17 18 21 20 23 12 18 23 68 90 100 98 99 100 93 95 100 100 74
8 12 10 19 27 29 36 36 31 29 26 18 18 19 20 20 21 24 13 21 46 97 100 94 99 99 100 96 100 100 100 43
11 8 22 30 30 29 28 29 28 30 21 20 21 21 21 19 23 15 20 29 79 100 98 96 100 100 76 97 100 77 43 33
8 20 34 31 19 24 28 28 30 32 23 23 26 28 26 21 23 12 24 48 100 96 76 100 90 100 72 99 100 32 34 38
17 35 31 15 19 25 23 25 27 32 28 27 28 32 32 23 19 16 26 86 100 77 91 93 97 99 100 97 100 100 30 32
33 31 15 16 18 17 16 18 21 32 35 32 28 36 34 24 16 22 29 100 89 68 69 100 95 99 100 86 99 100 73 26
31 14 13 12 13 12 13 14 17 28 41 40 33 40 34 25 16 25 36 99 71 43 55 99 100 71 52 42 27 23 21 21

GFSFLT1_500_rhum_315.txt.gz
RH
18 29 46 56 38 16 5 5 7 10 9 9 7 6 7 9 10 9 10 25 22 13 14 16 12 9 9 8 7 6 5 5
29 52 67 54 20 7 5 7 11 10 10 8 7 9 11 11 10 18 28 18 15 18 13 9 9 8 7 7 8 10 11 12
70 80 84 38 12 6 7 11 12 11 9 8 11 13 13 13 27 28 18 19 16 10 10 8 7 8 9 9 10 11 10 10
69 83 66 20 7 9 12 13 12 10 8 12 14 14 14 31 28 20 20 12 10 10 8 8 10 11 12 12 11 9 9 11
98 41 25 8 26 16 14 13 11 9 13 15 14 17 36 31 23 20 10 11 11 10 12 13 13 13 10 9 13 24 32 34
61 18 14 62 14 16 14 11 9 13 16 16 21 38 34 25 20 11 11 12 14 16 16 16 12 12 18 30 43 50 51 47
20 38 52 14 17 15 12 9 14 16 16 25 39 38 30 21 12 12 14 16 18 18 13 14 20 31 45 58 61 72 85 90
66 34 14 18 16 12 9 14 16 18 29 40 40 30 20 12 13 14 17 19 17 13 19 33 46 69 84 94 98 92 93 98
15 13 16 16 11 10 15 16 19 33 42 39 32 19 14 14 15 17 19 16 14 23 38 62 77 93 95 100 100 100 100 100
12 13 15 11 10 16 17 20 35 40 37 33 21 16 17 17 18 19 16 16 28 56 65 89 67 95 87 94 89 98 100 100
10 13 10 11 15 16 23 35 34 38 37 24 18 19 19 19 19 15 15 34 66 72 96 81 100 70 75 88 97 100 82 71
10 10 12 14 18 25 30 31 37 37 31 21 22 25 27 20 15 13 30 67 76 74 79 97 76 99 95 100 100 100 33 60
10 12 13 21 27 23 27 34 35 36 24 25 28 32 29 16 12 25 63 73 63 100 100 89 96 100 38 34 39 22 18 15
11 13 26 30 20 24 29 34 38 30 28 28 33 38 21 13 24 63 75 57 67 91 99 100 100 85 81 57 38 19 22 12
14 30 30 17 22 23 26 35 37 35 33 30 39 28 15 20 54 66 78 80 96 88 100 100 55 36 47 44 47 44 30 22
32 30 18 19 16 16 22 38 40 42 35 36 44 21 17 36 72 84 84 100 72 69 97 100 100 32 62 48 42 45 89 99
29 16 16 13 12 12 19 38 38 45 43 47 32 16 25 58 73 74 76 89 100 91 95 100 100 37 98 64 37 38 80 99
13 14 11 12 10 7 13 26 28 43 46 48 22 16 40 78 69 90 54 97 99 53 52 99 26 61 62 100 70 32 88 100
11 10 11 10 7 6 7 19 25 34 44 34 17 19 52 85 88 65 31 100 53 24 40 98 56 80 32 51 100 29 27 30

GFSFLT1_500_rhum_321.txt.gz
RH
83 74 64 73 100 99 87 87 84 35 9 18 16 13 11 9 9 11 12 13 20 28 27 22 19 19 20 19 17 15 13 12
75 70 77 90 54 50 62 69 16 18 18 16 14 11 10 15 16 16 28 31 26 23 23 20 15 13 13 13 13 12 11 9
65 83 92 72 68 96 56 24 26 22 17 13 10 15 18 19 32 34 27 25 22 17 14 14 16 16 16 14 11 10 10 9
93 72 89 84 96 90 77 50 21 17 13 14 19 21 32 43 32 27 20 17 17 17 19 20 18 13 11 11 12 12 12 12
77 100 94 96 99 65 21 21 14 12 19 22 30 45 39 30 24 21 20 20 23 23 18 12 13 23 35 42 45 44 43 43
100 97 96 94 27 21 20 12 17 23 30 43 46 35 30 24 24 23 27 26 16 11 21 35 38 51 60 60 57 50 51 53
94 54 20 19 20 16 14 20 25 36 48 39 37 30 29 28 28 31 18 12 23 40 39 53 69 89 95 81 86 87 96 86
60 18 14 17 13 16 21 30 45 45 40 37 34 33 32 35 23 13 25 41 38 45 55 81 100 100 95 100 100 100 93 81
12 13 13 14 19 25 35 49 41 41 38 39 37 38 36 16 21 43 27 32 56 55 47 38 63 80 99 100 48 37 32 40
12 12 14 21 27 38 47 37 39 41 42 41 43 30 16 42 38 29 48 73 48 41 43 56 54 48 45 24 24 21 73 56
12 18 24 30 39 41 32 35 37 42 45 44 23 23 43 39 37 57 68 81 65 79 85 67 94 97 90 71 24 22 61 97
24 27 30 33 36 26 24 31 39 45 40 19 37 41 37 50 76 80 86 56 78 100 99 98 98 97 100 95 100 17 21 23
28 22 20 26 22 17 26 34 40 28 17 46 44 37 74 77 74 79 56 73 77 77 100 98 100 100 100 100 44 63 78 79
16 16 17 17 13 21 29 34 24 17 49 47 43 65 71 41 41 41 46 86 100 95 100 98 96 100 99 100 74 100 79 84
13 9 10 8 16 24 31 23 20 50 40 36 56 58 29 50 76 79 78 60 83 100 88 84 98 99 100 100 75 55 26 77
7 7 8 12 19 24 22 20 50 30 28 30 50 54 39 91 99 48 30 83 94 84 75 88 98 95 100 98 96 62 13 23
6 6 7 16 16 18 17 32 36 25 25 28 40 27 83 100 87 78 32 89 100 100 66 59 92 100 100 100 100 100 84 13
7 6 8 14 15 15 22 31 26 25 22 23 23 23 69 98 83 100 73 52 100 77 92 91 72 98 100 100 100 100 99 14
7 6 8 12 14 14 20 26 25 23 22 18 16 29 66 66 58 83 100 33 34 38 26 36 99 96 99 100 100 100 99 88

GFSFLT1_500_rhum_327.txt.gz
RH
63 72 99 93 100 98 90 76 67 81 56 40 20 15 14 15 20 25 26 26 23 20 21 23 24 24 23 20 17 16 16 15
82 96 100 100 99 97 80 63 51 21 20 14 16 24 29 30 27 22 21 21 19 17 17 20 22 22 20 19 17 15 13 14
86 97 100 99 98 82 64 22 20 16 17 24 33 34 27 25 25 26 24 23 21 19 18 18 16 15 16 15 13 12 13 12
85 99 99 95 85 57 18 17 16 21 31 36 28 27 25 23 27 27 30 29 26 22 19 19 20 23 26 26 25 21 19 17
95 98 91 83 28 16 17 18 24 38 37 32 30 23 27 34 41 39 29 24 28 29 29 40 56 72 43 48 59 61 48 39
100 91 72 12 14 26 20 28 42 36 30 19 25 36 37 34 24 26 28 29 41 60 71 70 61 44 45 43 36 33 34 34
94 52 12 16 23 23 34 42 35 21 22 32 33 24 27 30 26 31 57 79 90 66 41 29 38 50 54 75 77 71 96 89
12 12 22 25 27 38 39 28 19 27 29 22 35 35 32 44 67 67 60 53 48 57 76 65 60 66 73 70 71 82 97 100
20 26 27 34 38 32 18 22 28 22 37 42 48 59 59 56 42 38 43 46 52 78 75 70 78 87 98 99 100 100 100 98
26 28 33 27 18 18 24 22 31 39 46 52 56 36 31 39 77 76 64 60 53 66 88 98 93 100 100 100 100 100 100 100
24 25 13 14 18 21 21 38 30 42 39 53 42 69 67 58 58 38 58 64 56 87 100 100 99 96 100 100 100 100 100 100
18 10 12 16 16 24 33 28 31 27 33 34 50 69 60 62 51 46 64 56 51 71 94 98 99 100 100 100 100 97 98 90
8 10 13 15 22 26 23 22 20 21 24 52 45 42 57 36 36 28 26 22 31 94 97 100 99 100 88 100 100 100 100 84
8 12 14 20 24 16 18 19 16 16 18 45 42 47 39 55 53 30 25 32 42 85 100 99 100 74 18 100 100 93 78 97
11 12 14 17 12 14 15 14 12 18 31 23 20 29 38 62 75 85 95 99 99 96 99 100 97 31 91 100 100 73 84 100
11 12 12 14 12 11 11 12 12 12 12 13 24 39 58 77 64 76 100 96 100 99 100 100 99 35 61 98 61 87 100 100
10 11 10 11 10 9 11 11 11 10 9 13 42 53 59 51 57 76 95 97 100 100 100 100 92 25 39 70 88 100 100 62
9 10 11 9 9 10 10 10 9 9 10 22 49 52 41 46 66 84 91 97 99 100 98 93 60 17 45 66 86 100 94 26
8 8 10 10 10 10 9 8 10 16 26 43 42 30 40 54 76 94 98 93 100 98 97 92 12 34 64 78 94 100 26 84

GFSFLT1_500_rhum_330.txt.gz
RH
52 94 100 100 100 98 100 100 100 99 44 16 15 16 22 25 22 16 12 11 11 11 14 16 18 20 23 21 19 19 18 18
100 97 100 100 100 100 100 100 99 24 15 16 24 23 17 14 10 8 8 10 12 13 16 16 14 14 13 13 14 16 18 17
78 94 100 100 100 100 99 82 17 17 24 27 21 15 12 13 18 24 25 23 20 19 20 20 20 20 20 19 17 16 15 12
81 99 100 98 95 88 32 15 22 25 25 17 11 14 23 24 23 20 19 19 22 23 28 31 32 35 41 37 34 39 40 30
100 100 90 93 72 19 22 24 28 26 13 13 21 23 22 25 28 31 31 29 36 50 56 56 55 52 43 39 37 41 49 53
100 92 92 56 15 25 23 19 16 12 18 22 24 28 30 38 49 58 66 66 60 58 53 48 52 62 63 56 55 55 52 44
98 64 17 23 25 19 12 12 17 20 26 33 39 53 58 55 48 53 65 68 68 58 57 63 74 75 70 58 65 69 68 67
12 22 20 16 11 9 14 18 25 32 42 47 49 45 56 76 80 80 61 41 53 60 61 63 62 66 75 79 82 82 91 98
17 12 10 7 11 15 20 26 33 34 34 41 41 62 68 61 59 51 42 44 51 61 64 48 52 82 94 98 100 100 99 94
9 7 8 13 16 22 29 33 25 25 30 46 52 46 44 53 45 41 44 42 44 34 28 34 71 95 100 100 100 100 100 100
7 9 12 15 20 23 23 24 20 21 28 40 45 40 47 41 46 58 48 53 46 44 56 84 96 100 100 100 100 96 83 80
9 11 14 17 18 17 24 22 19 19 28 40 29 27 34 43 51 56 71 90 99 100 100 100 100 100 100 100 99 76 25 70
10 12 15 14 15 17 20 22 21 26 26 16 26 44 38 42 47 64 86 100 100 100 100 100 100 100 100 100 44 47 99 100
11 12 13 12 14 15 17 18 16 12 13 27 43 44 40 42 48 68 100 100 100 100 100 100 100 100 99 34 62 100 100 100
11 11 11 11 12 12 12 11 10 11 15 21 29 29 28 50 84 100 92 100 99 100 100 100 100 85 34 65 100 84 79 98
10 10 10 10 9 9 10 12 15 17 19 14 20 20 64 100 97 94 95 76 72 100 100 96 34 38 58 86 100 100 100 100
9 10 9 8 7 8 12 20 27 19 15 16 37 69 99 97 94 82 79 95 89 65 17 36 64 100 100 100 100 100 100 100
8 11 9 8 8 14 28 30 24 28 44 58 59 96 98 89 75 90 83 71 100 21 34 55 76 96 92 70 42 29 36 30
10 13 12 11 17 30 36 50 74 85 72 58 81 96 91 84 96 88 86 63 77 11 46 61 52 52 72 88 98 100 100 97